DW1221 Weather Reports


Display with metric or nautical units.
time (UTC)temp
F
wind
direction
speed
MPH
gust
MPH
rain 1hr
in
rain 24hr
in
rain mn
in
humidity
%
barometer
mb
20240225040605 44 30 1.0 1.0 0.00 0.01 0.01 92 1014.7
20240225040107 44 30 0.0 3.0 0.00 0.01 0.01 92 1014.6
20240225040042 43 0 0.0 2.0 0.00 0.01 0.01 86 1014.2
20240225034611 43 38 0.0 2.0 0.00 0.01 0.01 86 1014.1
20240225033047 44 0 0.0 1.0 0.00 0.01 0.01 86 1013.9
20240225031540 44 0 0.0 2.0 0.00 0.01 0.01 86 1013.6
20240225030604 44 44 0.0 1.0 0.00 0.01 0.01 92 1013.8
20240225030105 44 44 0.0 3.0 0.00 0.01 0.01 92 1013.7
20240225030050 44 0 0.0 3.0 0.00 0.01 0.01 87 1013.3
20240225024535 43 0 0.0 1.0 0.00 0.01 0.01 86 1013.1
20240225023035 44 0 0.0 2.0 0.00 0.01 0.01 86 1012.9
20240225021537 44 0 0.0 1.0 0.00 0.01 0.01 86 1012.7
20240225020605 44 78 1.0 1.0 0.00 0.01 0.01 92 1013.1
20240225020104 44 78 0.0 1.0 0.00 0.01 0.01 92 1013.0
20240225020040 44 0 0.0 1.0 0.00 0.01 0.01 86 1012.5
20240225014540 44 0 0.0 1.0 0.00 0.01 0.01 86 1012.3
20240225013052 44 0 0.0 1.0 0.00 0.01 0.01 86 1012.3
20240225011540 44 0 0.0 1.0 0.00 0.01 0.01 86 1012.1
20240225010604 44 78 0.0 1.0 0.00 0.01 0.01 91 1012.5
20240225010038 44 0 0.0 1.0 0.00 0.01 0.01 85 1011.9
20240225004545 44 0 0.0 1.0 0.00 0.01 0.01 85 1011.7
20240225003039 44 78 0.0 2.0 0.00 0.01 0.01 85 1011.3
20240225001540 44 0 0.0 1.0 0.00 0.01 0.01 84 1011.0
20240225000604 45 78 0.0 1.0 0.00 0.01 0.01 90 1011.3
20240225000105 45 78 1.0 3.0 0.00 0.01 0.01 89 1011.2
20240225000052 44 0 0.0 2.0 0.00 0.01 0.01 84 1010.9
20240224234543 44 0 0.0 2.0 0.00 0.01 0.01 83 1010.6
20240224233044 45 78 0.0 3.0 0.00 0.01 0.01 83 1010.4
20240224231536 45 65 0.0 4.0 0.00 0.01 0.01 83 1010.3
20240224230604 45 65 2.0 5.0 0.00 0.01 0.01 88 1010.6
20240224230040 45 0 1.0 4.0 0.00 0.01 0.01 82 1010.2
20240224224539 45 61 0.0 2.0 0.00 0.01 0.01 81 1009.9
20240224223038 46 67 1.0 4.0 0.00 0.01 0.01 81 1009.5
20240224221621 46 71 1.0 4.0 0.00 0.01 0.01 80 1008.9
20240224220604 47 77 2.0 8.0 0.00 0.01 0.01 86 1009.2
20240224220105 47 81 3.0 13.0 0.00 0.01 0.01 85 1009.0
20240224220044 47 88 1.0 6.0 0.00 0.01 0.01 79 1008.5
20240224214559 48 121 2.0 10.0 0.00 0.01 0.01 77 1008.2
20240224213046 48 76 3.0 9.0 0.00 0.01 0.01 76 1007.8
20240224211544 49 82 4.0 11.0 0.00 0.01 0.01 76 1007.6
20240224210604 50 68 6.0 12.0 0.00 0.01 0.01 83 1008.0
20240224210105 50 60 4.0 13.0 0.00 0.01 0.01 84 1007.8
20240224210047 50 58 3.0 10.0 0.00 0.01 0.01 77 1007.3
20240224204553 51 45 4.0 10.0 0.00 0.01 0.01 76 1007.0
20240224203047 52 54 5.0 10.0 0.00 0.01 0.01 68 1006.7
20240224201559 51 11 3.0 10.0 0.00 0.01 0.01 66 1006.5
20240224200606 51 351 7.0 12.0 0.00 0.01 0.01 73 1006.6
20240224200102 51 333 3.0 8.0 0.00 0.01 0.01 66 1006.4
20240224194541 51 336 3.0 9.0 0.00 0.05 0.01 69 1006.4
20240224193055 52 34 3.0 8.0 0.00 0.05 0.01 68 1006.4
20240224191552 51 333 4.0 10.0 0.00 0.05 0.01 69 1006.3
20240224190605 51 329 6.0 12.0 0.00 0.06 0.01 78 1006.6
20240224190106 51 339 5.0 13.0 0.00 0.06 0.01 78 1006.6
20240224190045 50 321 4.0 11.0 0.00 0.05 0.01 71 1006.2
20240224184541 50 332 3.0 6.0 0.00 0.09 0.01 72 1006.0
20240224183039 50 40 3.0 11.0 0.00 0.09 0.01 72 1006.0
20240224181543 50 36 4.0 10.0 0.00 0.09 0.01 72 1006.1
20240224180604 51 327 7.0 12.0 0.00 0.09 0.01 80 1006.5
20240224180105 51 351 6.0 14.0 0.00 0.10 0.01 77 1006.5
20240224180044 51 340 5.0 10.0 0.00 0.09 0.01 69 1006.1
20240224174542 54 9 3.0 10.0 0.00 0.25 0.01 65 1006.0
20240224173049 53 334 4.0 11.0 0.00 0.25 0.01 67 1006.0
20240224171550 55 317 6.0 13.0 0.00 0.25 0.01 62 1006.1
20240224170104 53 1 5.0 13.0 0.00 0.29 0.01 73 1006.3
20240224170048 53 345 4.0 11.0 0.00 0.25 0.01 66 1006.0
20240224164553 53 344 2.0 8.0 0.00 0.30 0.01 66 1006.0
20240224163048 55 336 4.0 12.0 0.00 0.30 0.01 64 1005.9
20240224161549 54 348 5.0 11.0 0.00 0.30 0.01 64 1005.9
20240224160604 55 340 9.0 13.0 0.00 0.34 0.01 71 1006.3
20240224160104 54 292 5.0 13.0 0.00 0.34 0.01 76 1006.3
20240224160038 54 294 4.0 9.0 0.00 0.30 0.01 69 1006.0
20240224154540 53 341 3.0 10.0 0.00 0.31 0.01 67 1005.9
20240224153039 53 331 5.0 9.0 0.00 0.31 0.01 70 1005.9
20240224151543 52 331 2.0 9.0 0.00 0.31 0.01 76 1005.8
20240224150604 53 352 6.0 10.0 0.00 0.36 0.01 81 1006.3
20240224150105 52 337 5.0 10.0 0.00 0.36 0.01 83 1006.2
20240224150045 52 339 3.0 8.0 0.00 0.31 0.01 77 1005.8
20240224144542 50 0 2.0 9.0 0.00 0.31 0.01 81 1005.6
20240224143042 49 339 3.0 8.0 0.00 0.31 0.01 86 1005.4
20240224141543 46 296 1.0 5.0 0.00 0.31 0.01 92 1005.4
20240224140106 46 312 2.0 7.0 0.00 0.36 0.01 97 1005.9
20240224140042 46 312 1.0 3.0 0.00 0.31 0.01 92 1005.6
20240224134536 45 302 2.0 5.0 0.00 0.32 0.01 92 1005.5
20240224133038 44 288 1.0 6.0 0.00 0.32 0.01 92 1005.2
20240224131541 44 313 2.0 4.0 0.00 0.32 0.01 92 1005.0
20240224130606 44 317 2.0 5.0 0.00 0.37 0.01 97 1005.1
20240224130105 43 316 2.0 5.0 0.01 0.37 0.01 96 1005.1
20240224130049 43 316 1.0 3.0 0.01 0.32 0.01 92 1004.8
20240224124558 42 327 1.0 3.0 0.01 0.38 0.01 92 1004.5
20240224123059 42 327 1.0 3.0 0.01 0.38 0.01 92 1004.4
20240224121545 42 327 1.0 4.0 0.01 0.38 0.01 92 1004.2
20240224120604 42 290 2.0 3.0 0.01 0.43 0.01 96 1004.5
20240224120106 41 283 2.0 5.0 0.00 0.43 0.00 96 1004.6
20240224120051 41 280 2.0 3.0 0.00 0.37 0.00 92 1004.3
20240224114558 40 278 1.0 4.0 0.00 0.44 0.00 91 1004.1
20240224113055 40 304 2.0 4.0 0.00 0.44 0.00 91 1003.9
20240224111548 40 279 1.0 3.0 0.00 0.44 0.00 91 1003.4
20240224110605 40 279 3.0 3.0 0.00 0.51 0.00 96 1003.6
20240224110037 40 279 1.0 2.0 0.00 0.44 0.00 92 1003.0
20240224104548 38 278 1.0 3.0 0.00 0.44 0.00 91 1003.0
20240224103046 38 275 1.0 2.0 0.00 0.44 0.00 91 1002.7
20240224101551 38 274 0.0 2.0 0.00 0.44 0.00 91 1002.6
20240224100107 39 274 2.0 5.0 0.00 0.51 0.00 95 1002.8
20240224100041 39 275 1.0 3.0 0.00 0.44 0.00 91 1002.5
20240224094549 39 277 1.0 3.0 0.00 0.44 0.00 90 1002.4
20240224093046 39 277 1.0 2.0 0.00 0.44 0.00 91 1002.2
20240224091546 39 295 2.0 4.0 0.00 0.44 0.00 91 1002.1
20240224090104 39 287 2.0 3.0 0.00 0.51 0.00 95 1002.3
20240224090044 39 287 1.0 3.0 0.00 0.44 0.00 90 1001.9
20240224084551 39 289 0.0 2.0 0.00 0.44 0.00 90 1001.9
20240224083059 40 289 1.0 2.0 0.00 0.44 0.00 90 1001.7
20240224081545 40 288 1.0 2.0 0.00 0.44 0.00 90 1001.9
20240224080604 41 289 2.0 2.0 0.00 0.51 0.00 95 1002.4
20240224080104 41 288 2.0 3.0 0.00 0.51 0.00 95 1002.4
20240224080059 41 288 0.0 2.0 0.00 0.44 0.00 90 1001.8
20240224074559 41 289 1.0 3.0 0.00 0.44 0.00 90 1001.9
20240224073042 41 294 1.0 3.0 0.00 0.44 0.00 90 1001.9
20240224071539 41 294 1.0 3.0 0.00 0.44 0.00 90 1002.0
20240224070604 42 294 2.0 2.0 0.00 0.51 0.00 95 1002.4
20240224070104 42 294 2.0 3.0 0.00 0.51 0.00 95 1002.4
20240224070051 41 294 1.0 3.0 0.00 0.44 0.00 90 1001.8
20240224064540 41 294 1.0 3.0 0.00 0.44 0.00 90 1001.9
20240224063038 41 294 1.0 3.0 0.00 0.44 0.00 90 1001.8
20240224061547 41 294 1.0 3.0 0.00 0.44 0.00 90 1001.5
20240224060104 41 290 0.0 5.0 0.00 0.51 0.00 94 1001.9
20240224060052 41 290 0.0 3.0 0.00 0.44 0.00 90 1001.3
20240224054556 41 266 1.0 3.0 0.00 0.44 0.00 89 1001.3
20240224053058 41 296 0.0 2.0 0.00 0.44 0.00 89 1001.1
20240224051540 42 290 2.0 4.0 0.00 0.44 0.00 89 1001.1
20240224050604 42 296 2.0 3.0 0.00 0.51 0.00 94 1001.7
20240224050104 42 303 3.0 3.0 0.00 0.51 0.00 93 1001.6
20240224050045 42 305 2.0 3.0 0.00 0.44 0.00 89 1000.9
20240224044602 43 319 1.0 3.0 0.00 0.44 0.44 89 1000.9
20240224043055 43 326 1.0 2.0 0.00 0.44 0.44 89 1000.9
20240224041551 44 326 0.0 2.0 0.00 0.44 0.44 89 1000.8